Weather History for Sheringham Point, BC

Change the Weather History Date:

Tuesday, March 12, 2013

  Actual Average Record
Temperature  
Mean Temperature 47 °F -  
Max Temperature 51 °F - - ()
Min Temperature 43 °F - - ()
Degree Days  
Heating Degree Days 18    
Moisture  
Dew Point 46 °F    
Average Humidity 94    
Maximum Humidity 97    
Minimum Humidity 89    
Precipitation  
Precipitation 1.22 in - - ()
Sea Level Pressure  
Sea Level Pressure 30.01 in    
Wind  
Wind Speed 6 mph ()    
Max Wind Speed 16 mph    
Max Gust Speed 21 mph    
T = Trace of Precipitation, MM = Missing Value Source: Averaged Metar Reports

Daily Weather History Graph

Daily Weather History Graph

Search for Another Location

Airport:

Trip Planner

Search our weather history database for the weather conditions in past years. The results will help you decide how hot, cold, wet, or windy it might be!

Date:

Astronomy

Mar. 12, 2013 Rise Set
Actual Time 7:34 AM PDT 7:17 PM PDT
Civil Twilight 7:03 AM PDT 7:48 PM PDT
Nautical Twilight 6:26 AM PDT 8:24 PM PDT
Astronomical Twilight 5:49 AM PDT 9:01 PM PDT
Moon 7:36 AM PDT (3/12) 8:48 PM PDT (3/12)
Length of Visible Light 12h 45m
Length of Day
11h 42m
New Moon, 1% of the Moon is Illuminated
Mar 12
New Moon
Mar 19
First Quarter
Mar 27
Full
Apr 2
Last Quarter
Apr 10
New

Hourly Weather History & Observations

Time (PDT) Temp. Windchill Dew Point Humidity Pressure Visibility Wind Dir Wind Speed Gust Speed Precip Events Conditions
12:00 AM 43.9 °F - 42.3 °F 94% 30.09 in - Calm Calm - 0.06 in   Unknown
1:00 AM 44.1 °F - 43.0 °F 96% 30.07 in - WNW 2.3 mph - 0.09 in   Unknown
2:00 AM 44.4 °F - 43.3 °F 96% 30.06 in - Calm Calm - 0.07 in   Unknown
3:00 AM 44.2 °F 42.7 °F 43.3 °F 97% 30.04 in - East 3.5 mph - 0.05 in   Unknown
4:00 AM 44.2 °F 42.7 °F 43.5 °F 97% 30.02 in - East 3.5 mph - 0.03 in   Unknown
5:00 AM 45 °F - 44 °F 96% 30.00 in - ENE 3.5 mph - -  
5:00 AM 45.0 °F 43.5 °F 44.2 °F 97% 30.00 in - ENE 3.5 mph - 0.08 in   Unknown
7:00 AM 47.3 °F - 46.4 °F 97% 29.99 in - Calm Calm - 0.16 in   Unknown
8:00 AM 48.4 °F - 47.5 °F 97% 29.97 in - WNW 3.5 mph - 0.20 in   Unknown
9:00 AM 49.3 °F - 47.5 °F 94% 29.96 in - WNW 12.7 mph - 0.23 in   Unknown
10:00 AM 48.4 °F - 47.1 °F 95% 29.98 in - WNW 16.1 mph - 0.31 in   Unknown
11:00 AM 49 °F - 47 °F 91% 30.00 in - WNW 15.0 mph - -  
11:00 AM 48.7 °F - 47.1 °F 94% 30.00 in - WNW 15.0 mph 20.7 mph 0.23 in   Unknown
12:00 PM 48.9 °F - 46.9 °F 93% 30.01 in - WNW 15.0 mph - 0.19 in   Unknown
1:00 PM 48.9 °F - 46.9 °F 93% 30.02 in - WNW 13.8 mph - 0.07 in   Unknown
2:00 PM 49.1 °F - 47.5 °F 94% 30.02 in - WNW 12.7 mph - 0.06 in   Unknown
3:00 PM 50.0 °F - 47.7 °F 92% 30.01 in - NW 11.5 mph 20.7 mph 0.03 in   Unknown
4:00 PM 50.2 °F - 47.7 °F 91% 30.02 in - NW 11.5 mph - 0.05 in   Unknown
5:00 PM 50 °F - 48 °F 89% 30.01 in - NW 9.2 mph - -  
5:00 PM 50.4 °F - 47.8 °F 91% 30.01 in - NW 9.2 mph - 0.05 in   Unknown
6:00 PM 50.2 °F - 47.3 °F 90% 30.01 in - WNW 8.1 mph - 0.03 in   Unknown
7:00 PM 49.8 °F - 47.3 °F 91% 30.01 in - NW 10.4 mph - 0.07 in   Unknown
8:00 PM 49.8 °F - 47.7 °F 92% 30.00 in - NW 9.2 mph - 0.15 in   Unknown
9:00 PM 49.1 °F - 47.7 °F 95% 30.00 in - WNW 11.5 mph - 0.09 in   Unknown
10:00 PM 49.8 °F - 47.7 °F 92% 30.01 in - WNW 11.5 mph - 0.06 in   Unknown
11:00 PM 50 °F - 48 °F 89% 30.01 in - WNW 11.5 mph - -  
11:00 PM 50.0 °F - 47.8 °F 92% 30.01 in - WNW 11.5 mph - 0.11 in   Unknown